Weather History for Whidbey Island, WA

Change the Weather History Date:

Monday, January 21, 2013

  Actual Average Record
Temperature  
Mean Temperature 34 °F -  
Max Temperature 39 °F 45 °F 62 °F (2005)
Min Temperature 28 °F 35 °F 24 °F (2008)
Degree Days  
Heating Degree Days 32    
Moisture  
Dew Point 31 °F    
Average Humidity 91    
Maximum Humidity 100    
Minimum Humidity 85    
Precipitation  
Precipitation 0.01 in - - ()
Sea Level Pressure  
Sea Level Pressure 30.21 in    
Wind  
Wind Speed 4 mph (ESE)    
Max Wind Speed 8 mph    
Max Gust Speed -    
Visibility 1 miles    
Events Fog    
Averages and records for this station are not official NWS values.
T = Trace of Precipitation, MM = Missing Value Source: NWS Daily Summary

Daily Weather History Graph

Daily Weather History Graph

Search for Another Location

Airport:

Trip Planner

Search our weather history database for the weather conditions in past years. The results will help you decide how hot, cold, wet, or windy it might be!

Date:

Astronomy

Jan. 21, 2013 Rise Set
Actual Time 7:51 AM PST 4:53 PM PST
Civil Twilight 7:16 AM PST 5:27 PM PST
Nautical Twilight 6:38 AM PST 6:06 PM PST
Astronomical Twilight 6:01 AM PST 6:43 PM PST
Moon 12:34 PM PST (1/21) 3:26 AM PST (1/21)
Length of Visible Light 10h 10m
Length of Day
9h 01m
Waxing Gibbous, 76% of the Moon is Illuminated
Jan 21
Waxing Gibbous
Jan 26
Full
Feb 3
Last Quarter
Feb 9
New
Feb 17
First Quarter

Hourly Weather History & Observations

Time (PST) Temp. Windchill Dew Point Humidity Pressure Visibility Wind Dir Wind Speed Gust Speed Precip Events Conditions
12:03 AM 30.2 °F 26.7 °F 26.6 °F 86% 30.28 in 0.2 mi ESE 3.5 mph - N/A Fog Light Freezing Fog
12:56 AM 28.0 °F 24.2 °F 25.0 °F 88% 30.29 in 0.2 mi ESE 3.5 mph - N/A Fog Light Freezing Fog
1:28 AM 30.2 °F - 26.6 °F 86% 30.28 in 0.2 mi Calm Calm - N/A Fog Light Freezing Fog
1:56 AM 30.9 °F - 27.0 °F 85% 30.29 in 0.2 mi Calm Calm - N/A Fog Light Freezing Fog
2:45 AM 28.4 °F 22.2 °F 24.8 °F 86% 30.27 in 0.2 mi SSE 5.8 mph - N/A Fog Light Freezing Fog
2:56 AM 28.9 °F 21.9 °F 26.1 °F 89% 30.29 in 0.2 mi SSE 6.9 mph - N/A Fog Light Freezing Fog
3:56 AM 30.0 °F 25.2 °F 27.0 °F 88% 30.28 in 0.2 mi SE 4.6 mph - N/A Fog Light Freezing Fog
4:06 AM 30.2 °F 24.3 °F 26.6 °F 86% 30.26 in 0.2 mi SE 5.8 mph - N/A Fog Light Freezing Fog
4:28 AM 30.2 °F 24.3 °F 28.4 °F 93% 30.26 in 0.5 mi ESE 5.8 mph - N/A Fog Light Freezing Fog
4:56 AM 30.9 °F 26.2 °F 28.9 °F 92% 30.26 in 0.8 mi SE 4.6 mph - N/A   Overcast
5:04 AM 32.0 °F 26.4 °F 28.4 °F 87% 30.25 in 1.0 mi SE 5.8 mph - N/A   Overcast
5:18 AM 32.0 °F 27.5 °F 30.2 °F 93% 30.25 in 0.5 mi SE 4.6 mph - N/A Fog Fog
5:35 AM 32.0 °F 27.5 °F 30.2 °F 93% 30.25 in 0.2 mi SE 4.6 mph - N/A Fog Fog
5:56 AM 32.0 °F 27.5 °F 30.0 °F 92% 30.25 in 0.2 mi ESE 4.6 mph - N/A Fog Fog
6:56 AM 33.1 °F 28.7 °F 30.0 °F 89% 30.24 in 0.2 mi East 4.6 mph - 0.01 in Fog Fog
7:56 AM 33.1 °F 30.0 °F 30.0 °F 89% 30.24 in 0.2 mi SSE 3.5 mph - N/A Fog Fog
8:56 AM 34.0 °F 31.0 °F 30.9 °F 89% 30.24 in 0.2 mi East 3.5 mph - N/A Fog Fog
9:32 AM 33.8 °F 28.6 °F 32.0 °F 93% 30.23 in 1.0 mi East 5.8 mph - N/A   Overcast
9:42 AM 33.8 °F 29.6 °F 32.0 °F 93% 30.23 in 0.5 mi ENE 4.6 mph - N/A Fog Fog
9:56 AM 34.0 °F - 32.0 °F 92% 30.25 in 1.5 mi Calm Calm - N/A   Overcast
10:31 AM 33.8 °F 30.8 °F 32.0 °F 93% 30.25 in 0.8 mi SE 3.5 mph - N/A   Overcast
10:56 AM 34.0 °F - 33.1 °F 96% 30.27 in 0.8 mi Calm Calm - N/A   Overcast
11:12 AM 35.6 °F 32.8 °F 33.8 °F 93% 30.25 in 1.0 mi SE 3.5 mph - N/A   Overcast
11:41 AM 35.6 °F - 35.6 °F 100% 30.24 in 3.0 mi Calm Calm - N/A   Overcast
11:51 AM 37.4 °F - 35.6 °F 93% 30.24 in 4.0 mi Calm Calm - N/A   Overcast
11:56 AM 37.0 °F - 35.1 °F 93% 30.25 in 5.0 mi Calm Calm - N/A   Overcast
12:56 PM 37.9 °F - 36.0 °F 93% 30.23 in 7.0 mi Calm Calm - N/A   Overcast
1:47 PM 39.2 °F - 37.4 °F 93% 30.20 in 9.0 mi Calm Calm - N/A   Overcast
1:56 PM 39.9 °F - 37.9 °F 93% 30.21 in 10.0 mi Calm Calm - N/A   Overcast
2:56 PM 39.0 °F 34.8 °F 35.1 °F 86% 30.18 in 6.0 mi ESE 5.8 mph - N/A   Scattered Clouds
3:24 PM 35.6 °F 29.2 °F 33.8 °F 93% 30.17 in 2.5 mi ESE 8.1 mph - N/A   Partly Cloudy
3:32 PM 35.6 °F 29.2 °F 32.0 °F 87% 30.17 in 1.0 mi ESE 8.1 mph - N/A   Mist
3:36 PM 35.6 °F 29.2 °F 32.0 °F 87% 30.17 in 0.8 mi ESE 8.1 mph - N/A   Mist
3:49 PM 33.8 °F 28.6 °F 32.0 °F 93% 30.17 in 0.2 mi East 5.8 mph - N/A Fog Fog
3:56 PM 34.0 °F 28.8 °F 32.0 °F 92% 30.18 in 0.2 mi East 5.8 mph - N/A Fog Fog
4:06 PM 33.8 °F 28.6 °F 32.0 °F 93% 30.17 in 0.8 mi East 5.8 mph - N/A   Mist
4:15 PM 33.8 °F 28.6 °F 32.0 °F 93% 30.16 in 1.2 mi East 5.8 mph - N/A   Overcast
4:43 PM 33.8 °F 28.6 °F 32.0 °F 93% 30.17 in 0.5 mi ESE 5.8 mph - N/A Fog Fog
4:56 PM 34.0 °F 29.8 °F 32.0 °F 92% 30.18 in 0.2 mi ESE 4.6 mph - N/A Fog Fog
5:09 PM 33.8 °F 28.6 °F 32.0 °F 93% 30.16 in 0.8 mi East 5.8 mph - N/A   Mist
5:41 PM 33.8 °F 27.0 °F 30.2 °F 87% 30.16 in 0.2 mi ESE 8.1 mph - N/A Fog Fog
5:52 PM 33.8 °F 27.0 °F 30.2 °F 87% 30.16 in 0.2 mi ESE 8.1 mph - N/A Fog Fog
5:56 PM 34.0 °F 27.2 °F 30.9 °F 89% 30.17 in 0.2 mi East 8.1 mph - N/A Fog Fog
6:56 PM 33.1 °F 28.7 °F 30.0 °F 89% 30.17 in 0.2 mi SE 4.6 mph - N/A Fog Fog
7:14 PM 33.8 °F 29.6 °F 30.2 °F 87% 30.15 in 0.2 mi ESE 4.6 mph - N/A Fog Fog
7:56 PM 32.0 °F 27.5 °F 30.0 °F 92% 30.17 in 0.2 mi SSE 4.6 mph - N/A Fog Fog
8:56 PM 33.1 °F - 30.0 °F 89% 30.18 in 0.2 mi Calm Calm - N/A Fog Fog
9:56 PM 32.0 °F 25.6 °F 30.0 °F 92% 30.17 in 0.2 mi East 6.9 mph - N/A Fog Fog
10:04 PM 32.0 °F 25.6 °F 30.2 °F 93% 30.16 in 0.5 mi ESE 6.9 mph - N/A Fog Fog
10:20 PM 32.0 °F 26.4 °F 30.2 °F 93% 30.16 in 1.2 mi ESE 5.8 mph - N/A   Overcast
10:35 PM 32.0 °F 26.4 °F 28.4 °F 87% 30.16 in 3.0 mi East 5.8 mph - N/A   Overcast
10:54 PM 32.0 °F 28.7 °F 28.4 °F 87% 30.16 in 2.0 mi ESE 3.5 mph - N/A   Overcast
10:56 PM 32.0 °F - 28.9 °F 88% 30.17 in 2.0 mi Calm Calm - N/A   Overcast
11:04 PM 32.0 °F 25.6 °F 28.4 °F 87% 30.17 in 1.8 mi SSE 6.9 mph - N/A   Overcast
11:14 PM 30.2 °F 25.4 °F 28.4 °F 93% 30.17 in 2.5 mi SE 4.6 mph - N/A   Overcast
11:38 PM 30.2 °F - 28.4 °F 93% 30.17 in 4.0 mi Calm Calm - N/A   Overcast
11:54 PM 32.0 °F 25.6 °F 28.4 °F 87% 30.15 in 1.8 mi ENE 6.9 mph - N/A   Overcast
11:56 PM 30.9 °F 24.3 °F 28.9 °F 92% 30.16 in 0.1 mi ENE 6.9 mph - N/A   Overcast